Location: Unspecified
(0.0000°N, 0.0000°E)
Time: 14:52:43
(UTC+00:00)

CZ-3C DEB - Pass Details

Date: 22 February 2026
Orbit: 380 x 28980 km, 20.3° (Epoch: 21 March)

Event Time Altitude Azimuth Distance (km) Brightness Sun altitude
Rises 12:14:56 0° 237° (WSW) 4,858 ? 79.9°
Reaches altitude 10° 12:16:52 10° 233° (SW) 4,463 ? 79.9°
Maximum altitude 12:32:22 67° 149° (SSE) 5,852 ? 78.9°
Enters shadow 19:21:26 15° 68° (ENE) 13,554 ? -16.7°
